Location: Rogers' Astrophysics Observatory
(34.4289°N, 82.8708°W)
Time: 23:09:54
(UTC-04:00)

ISS - Visible Passes

Search period start: 15 July 2018 00:00
Search period end: 25 July 2018 00:00
Orbit: 402 x 408 km, 51.6° (Epoch: 16 July)

Date Brightness Start Highest point End Pass type
(mag) Time Alt. Az. Time Alt. Az. Time Alt. Az.
16 Jul -0.7 05:57:39 10° NNW 05:59:53 17° NNE 06:02:07 10° ENE visible
17 Jul -0.3 05:06:41 10° N 05:07:34 11° NNE 05:08:26 10° NE visible
18 Jul -1.9 05:49:21 10° NNW 05:52:25 35° NE 05:55:28 10° ESE visible
18 Jul -4.0 22:26:28 10° SW 22:29:43 82° SE 22:30:47 39° NE visible
19 Jul -0.4 00:07:08 12° NNW 00:07:08 12° NNW 00:08:05 10° N visible
19 Jul -0.9 04:57:39 10° NNW 05:00:11 20° NNE 05:02:42 10° E visible
19 Jul -3.3 21:34:41 10° SSW 21:37:41 35° SE 21:40:43 10° ENE visible
19 Jul -1.0 23:11:45 10° W 23:14:15 20° NNW 23:16:45 10° NNE visible
20 Jul -0.4 04:06:18 10° N 04:07:51 13° NNE 04:09:23 10° NE visible
20 Jul -3.9 05:41:25 10° NW 05:44:42 81° SW 05:47:59 10° SE visible
20 Jul -2.1 22:18:58 10° WSW 22:22:00 35° NW 22:25:02 10° NNE visible
21 Jul -2.7 04:49:24 10° NW 04:52:34 45° NE 04:55:45 10° ESE visible
21 Jul -3.6 21:26:35 10° SW 21:29:50 74° NW 21:33:06 10° NE visible
21 Jul -0.2 23:06:01 10° NW 23:06:48 11° NNW 23:07:36 10° NNW visible
22 Jul -1.4 03:57:35 10° NNW 04:00:21 24° NE 04:03:06 10° E visible
22 Jul -2.9 05:33:58 10° WNW 05:36:47 26° SW 05:39:36 10° S visible
22 Jul -0.6 22:12:13 10° WNW 22:14:24 17° NNW 22:16:36 10° NNE visible
23 Jul -1.5 21:19:13 10° W 21:22:05 28° NW 21:24:57 10° NNE visible
